Weather History for Montpelier, VT

Change the Weather History Date:

Tuesday, April 10, 2012

  Actual Average Record
Temperature  
Mean Temperature 42 °F 40 °F  
Max Temperature 48 °F 51 °F 64 °F (1955)
Min Temperature 35 °F 30 °F 17 °F (1997)
Degree Days  
Heating Degree Days 23 25  
Month to date heating degree days 271 270  
Since 1 July heating degree days 6137 7295  
Cooling Degree Days 0 0  
Month to date cooling degree days 0 0  
Year to date cooling degree days 0 0  
Moisture  
Dew Point 34 °F    
Average Humidity 80    
Maximum Humidity 100    
Minimum Humidity 60    
Precipitation  
Precipitation 0.05 in 0.09 in 1.17 in (1980)
Month to date precipitation 0.54 0.85  
Year to date precipitation 4.79 7.73  
Sea Level Pressure  
Sea Level Pressure 29.61 in    
Wind  
Wind Speed 7 mph (SW)    
Max Wind Speed 16 mph    
Max Gust Speed 204 mph    
Visibility 8 miles    
Events Rain    
T = Trace of Precipitation, MM = Missing Value Source: NWS Daily Summary

Daily Weather History Graph

Daily Weather History Graph

Search for Another Location

Airport:

Trip Planner

Search our weather history database for the weather conditions in past years. The results will help you decide how hot, cold, wet, or windy it might be!

Date:

Astronomy

Apr. 10, 2012 Rise Set
Actual Time 6:14 AM EDT 7:29 PM EDT
Civil Twilight 5:44 AM EDT 7:58 PM EDT
Nautical Twilight 5:08 AM EDT 8:34 PM EDT
Astronomical Twilight 4:31 AM EDT 9:12 PM EDT
Moon No Moon Rise 8:47 AM EDT (4/10)
Length of Visible Light 14h 14m
Length of Day
13h 14m
Waning Gibbous, 79% of the Moon is Illuminated
Apr 10
Waning Gibbous
Apr 13
Last Quarter
Apr 21
New
Apr 29
First Quarter
May 5
Full

Hourly Weather History & Observations

Time (EDT) Temp. Windchill Dew Point Humidity Pressure Visibility Wind Dir Wind Speed Gust Speed Precip Events Conditions
12:51 AM 37.9 °F - 36.0 °F 93% 29.58 in 10.0 mi Calm Calm - 0.00 in Rain Light Rain
1:19 AM 37.4 °F 34.9 °F 37.4 °F 100% 29.55 in 7.0 mi ENE 3.5 mph - 0.01 in Rain Light Rain
1:48 AM 37.4 °F - 37.4 °F 100% 29.55 in 4.0 mi Calm Calm - 0.03 in Rain Light Rain
1:51 AM 37.0 °F - 37.0 °F 100% 29.58 in 5.0 mi Calm Calm - 0.03 in Rain Light Rain
2:02 AM 37.4 °F 34.9 °F 37.4 °F 100% 29.54 in 1.8 mi ENE 3.5 mph - 0.01 in Rain Light Rain
2:06 AM 35.6 °F 32.8 °F 35.6 °F 100% 29.54 in 1.0 mi East 3.5 mph - 0.01 in Rain Light Rain
2:16 AM 35.6 °F - 35.6 °F 100% 29.54 in 0.8 mi Calm Calm - 0.01 in Rain Light Rain
2:22 AM 35.6 °F - 35.6 °F 100% 29.54 in 1.0 mi Calm Calm - 0.01 in Rain Light Rain
2:25 AM 35.6 °F - 35.6 °F 100% 29.54 in 1.5 mi Calm Calm - 0.01 in Rain Light Rain
2:29 AM 37.4 °F - 37.4 °F 100% 29.54 in 3.0 mi Calm Calm - 0.01 in Rain Light Rain
2:39 AM 37.4 °F - 35.6 °F 93% 29.54 in 9.0 mi Calm Calm - 0.01 in Rain Light Rain
2:51 AM 37.0 °F 34.5 °F 36.0 °F 96% 29.57 in 9.0 mi WSW 3.5 mph - 0.02 in Rain Light Rain
3:51 AM 37.4 °F 32.8 °F 35.6 °F 93% 29.53 in 10.0 mi SSW 5.8 mph - N/A   Overcast
4:23 AM 39.2 °F 34.2 °F 33.8 °F 81% 29.53 in 10.0 mi SW 6.9 mph 16.1 mph N/A   Overcast
4:34 AM 37.4 °F 33.8 °F 35.6 °F 93% 29.53 in 10.0 mi SW 4.6 mph - N/A   Overcast
4:51 AM 37.9 °F 32.7 °F 34.0 °F 86% 29.56 in 10.0 mi WSW 6.9 mph - N/A   Overcast
4:59 AM 37.4 °F 30.3 °F 33.8 °F 87% 29.53 in 10.0 mi SW 10.4 mph - N/A   Overcast
5:51 AM 37.9 °F 32.1 °F 33.1 °F 83% 29.57 in 10.0 mi SW 8.1 mph - N/A   Mostly Cloudy
6:51 AM 39.0 °F 34.8 °F 33.1 °F 79% 29.57 in 10.0 mi Variable 5.8 mph - N/A   Overcast
7:51 AM 39.0 °F 35.7 °F 34.0 °F 82% 29.59 in 10.0 mi SSW 4.6 mph - N/A   Overcast
8:30 AM 39.2 °F 33.0 °F 35.6 °F 87% 29.56 in 10.0 mi SSW 9.2 mph - N/A   Overcast
8:51 AM 39.9 °F 35.8 °F 36.0 °F 86% 29.60 in 10.0 mi SW 5.8 mph - N/A   Mostly Cloudy
9:41 AM 42.8 °F 37.0 °F 35.6 °F 76% 29.57 in 10.0 mi SW 10.4 mph - N/A   Overcast
9:51 AM 42.1 °F 36.1 °F 35.1 °F 76% 29.60 in 10.0 mi SW 10.4 mph - N/A   Mostly Cloudy
10:51 AM 43.0 °F 38.2 °F 35.1 °F 74% 29.62 in 10.0 mi SW 8.1 mph 18.4 mph N/A   Overcast
11:51 AM 44.1 °F 38.6 °F 35.1 °F 71% 29.62 in 10.0 mi SSW 10.4 mph 16.1 mph 0.00 in   Overcast
12:34 PM 44.6 °F 38.4 °F 35.6 °F 71% 29.59 in 10.0 mi WSW 12.7 mph 19.6 mph N/A   Overcast
12:51 PM 44.6 °F 40.7 °F 35.6 °F 71% 29.59 in 10.0 mi Variable 6.9 mph 19.6 mph N/A   Overcast
1:51 PM 46.4 °F 41.9 °F 33.8 °F 62% 29.59 in 10.0 mi WSW 9.2 mph 20.7 mph N/A   Partly Cloudy
2:51 PM 46.9 °F - 34.0 °F 61% 29.62 in 10.0 mi SW 10.4 mph 19.6 mph 0.00 in   Scattered Clouds
3:51 PM 46.4 °F 40.7 °F 33.8 °F 62% 29.60 in 10.0 mi SW 12.7 mph 19.6 mph N/A   Scattered Clouds
4:51 PM 45.0 °F 39.3 °F 33.1 °F 63% 29.66 in 10.0 mi SW 11.5 mph 20.7 mph N/A   Scattered Clouds
5:51 PM 44.1 °F 38.6 °F 33.1 °F 65% 29.69 in 10.0 mi WSW 10.4 mph 16.1 mph N/A   Overcast
6:51 PM 42.1 °F - 32.0 °F 67% 29.71 in 10.0 mi North - - N/A   Unknown
7:51 PM 41.0 °F - 32.0 °F 70% 29.74 in 10.0 mi North - - N/A   Partly Cloudy
8:12 PM 41.0 °F - 32.0 °F 70% 29.72 in 10.0 mi North - - N/A   Mostly Cloudy
8:51 PM 39.0 °F - 32.0 °F 76% 29.77 in 10.0 mi North - - N/A   Mostly Cloudy
9:16 PM 37.4 °F - 32.0 °F 81% 29.74 in 10.0 mi North - - N/A   Scattered Clouds
9:51 PM 35.1 °F - 30.9 °F 85% 29.77 in 10.0 mi North - - N/A   Mostly Cloudy
10:51 PM 35.6 °F - 30.2 °F 81% 29.74 in 10.0 mi North - - N/A   Mostly Cloudy
11:51 PM 37.9 °F - 30.9 °F 76% 29.78 in 10.0 mi North - - N/A   Mostly Cloudy